GFSFLT1_prec_precacc6_231.txt.gz
Total_Precipitation_Accumulation
0.00 0.00 0.00 0.00 0.00 0.00 0.00 0.00 0.00 0.00 0.01 0.04 0.06 0.05 0.03 0.02 0.01 0.00 0.00 0.00 0.00 0.02 0.02 0.08 0.08 0.03 0.04 0.01 0.00 0.00 0.00 0.00
0.00 0.00 0.00 0.00 0.00 0.00 0.00 0.00 0.00 0.00 0.00 0.01 0.02 0.02 0.01 0.02 0.00 0.00 0.00 0.00 0.00 0.00 0.01 0.05 0.04 0.04 0.08 0.08 0.02 0.00 0.00 0.00
0.00 0.00 0.00 0.00 0.00 0.00 0.00 0.00 0.00 0.00 0.00 0.01 0.02 0.03 0.01 0.03 0.03 0.01 0.00 0.00 0.00 0.00 0.00 0.01 0.08 0.11 0.06 0.08 0.02 0.00 0.00 0.00
0.00 0.00 0.00 0.00 0.00 0.00 0.00 0.00 0.00 0.00 0.00 0.04 0.20 0.34 0.27 0.09 0.04 0.02 0.02 0.01 0.01 0.00 0.00 0.00 0.01 0.04 0.14 0.30 0.16 0.05 0.02 0.00
0.00 0.00 0.00 0.00 0.00 0.00 0.00 0.00 0.00 0.01 0.04 0.07 0.10 0.07 0.04 0.03 0.04 0.01 0.01 0.01 0.01 0.00 0.00 0.00 0.00 0.03 0.06 0.10 0.20 0.10 0.02 0.00
0.00 0.00 0.00 0.00 0.00 0.00 0.00 0.02 0.02 0.04 0.05 0.02 0.13 0.15 0.11 0.12 0.16 0.05 0.03 0.03 0.02 0.02 0.01 0.00 0.00 0.01 0.03 0.05 0.08 0.07 0.04 0.02
0.00 0.00 0.00 0.00 0.00 0.00 0.00 0.05 0.08 0.17 0.24 0.36 0.39 0.38 0.44 0.55 0.33 0.10 0.12 0.13 0.11 0.07 0.02 0.00 0.00 0.02 0.03 0.08 0.07 0.05 0.03 0.02
0.00 0.00 0.00 0.00 0.00 0.00 0.00 0.01 0.02 0.03 0.07 0.22 0.32 0.43 0.72 0.53 0.59 0.61 0.36 0.22 0.12 0.15 0.10 0.03 0.01 0.02 0.07 0.14 0.08 0.04 0.02 0.01
0.00 0.00 0.00 0.00 0.00 0.00 0.00 0.00 0.00 0.03 0.04 0.08 0.05 0.04 0.15 0.24 0.37 0.52 0.67 0.58 0.32 0.32 0.38 0.19 0.09 0.09 0.09 0.07 0.09 0.08 0.04 0.01
0.00 0.00 0.00 0.00 0.00 0.00 0.00 0.00 0.00 0.02 0.03 0.06 0.11 0.08 0.10 0.24 0.20 0.38 0.58 0.52 0.46 0.55 0.59 0.42 0.25 0.13 0.10 0.10 0.07 0.05 0.05 0.02
0.00 0.00 0.00 0.00 0.00 0.00 0.00 0.00 0.00 0.00 0.01 0.04 0.07 0.11 0.14 0.27 0.35 0.32 0.25 0.42 0.54 0.57 0.53 0.48 0.47 0.34 0.25 0.16 0.09 0.03 0.02 0.02
0.00 0.00 0.00 0.00 0.00 0.00 0.00 0.00 0.00 0.00 0.00 0.01 0.02 0.05 0.08 0.15 0.09 0.09 0.15 0.12 0.18 0.42 0.76 0.69 0.44 0.37 0.25 0.23 0.20 0.13 0.06 0.03
0.03 0.02 0.01 0.01 0.00 0.00 0.00 0.00 0.00 0.00 0.00 0.00 0.00 0.01 0.03 0.07 0.04 0.04 0.06 0.06 0.23 0.56 0.66 0.86 1.10 0.78 0.41 0.20 0.15 0.16 0.16 0.12
0.12 0.08 0.05 0.03 0.03 0.02 0.02 0.01 0.00 0.00 0.00 0.00 0.00 0.00 0.00 0.01 0.04 0.04 0.05 0.05 0.08 0.14 0.47 0.79 0.93 1.01 1.35 0.91 0.35 0.24 0.16 0.11
0.46 0.20 0.11 0.07 0.05 0.03 0.02 0.01 0.00 0.00 0.00 0.00 0.00 0.00 0.00 0.00 0.00 0.01 0.01 0.01 0.03 0.04 0.08 0.18 0.46 0.85 0.98 1.00 1.05 0.89 0.61 0.35
0.20 0.19 0.08 0.06 0.04 0.03 0.01 0.01 0.01 0.01 0.00 0.00 0.00 0.00 0.00 0.00 0.00 0.00 0.00 0.00 0.00 0.00 0.01 0.02 0.04 0.12 0.28 0.54 0.65 0.69 0.65 0.50
0.01 0.01 0.01 0.00 0.01 0.01 0.02 0.02 0.01 0.01 0.01 0.01 0.00 0.00 0.00 0.00 0.00 0.00 0.00 0.00 0.00 0.00 0.00 0.00 0.00 0.00 0.03 0.11 0.33 0.63 1.11 1.27
0.00 0.00 0.00 0.00 0.01 0.00 0.00 0.00 0.01 0.01 0.00 0.00 0.00 0.00 0.00 0.00 0.00 0.00 0.00 0.00 0.00 0.00 0.00 0.00 0.00 0.00 0.00 0.01 0.04 0.09 0.17 0.32
0.00 0.00 0.00 0.00 0.00 0.00 0.00 0.00 0.00 0.00 0.00 0.00 0.00 0.00 0.00 0.00 0.00 0.00 0.00 0.00 0.00 0.00 0.00 0.00 0.00 0.00 0.00 0.01 0.00 0.00 0.04 0.13

GFSFLT1_prec_precacc6_234.txt.gz
Total_Precipitation_Accumulation
0.00 0.00 0.00 0.00 0.00 0.00 0.00 0.00 0.00 0.00 0.00 0.02 0.07 0.06 0.04 0.03 0.01 0.00 0.00 0.01 0.00 0.04 0.03 0.10 0.21 0.12 0.04 0.05 0.00 0.00 0.00 0.00
0.00 0.00 0.00 0.00 0.00 0.00 0.00 0.00 0.00 0.00 0.00 0.02 0.05 0.03 0.04 0.03 0.00 0.01 0.03 0.06 0.05 0.01 0.00 0.02 0.19 0.14 0.10 0.11 0.08 0.00 0.00 0.00
0.00 0.00 0.00 0.00 0.00 0.00 0.00 0.00 0.00 0.00 0.00 0.01 0.02 0.03 0.02 0.04 0.04 0.03 0.02 0.05 0.05 0.04 0.01 0.03 0.15 0.21 0.12 0.09 0.05 0.02 0.00 0.00
0.00 0.00 0.00 0.00 0.00 0.00 0.00 0.00 0.00 0.00 0.00 0.00 0.00 0.01 0.04 0.08 0.04 0.03 0.03 0.01 0.01 0.02 0.04 0.04 0.02 0.10 0.19 0.28 0.17 0.08 0.04 0.00
0.00 0.00 0.00 0.00 0.00 0.00 0.00 0.00 0.00 0.00 0.00 0.00 0.02 0.04 0.05 0.02 0.02 0.03 0.02 0.02 0.01 0.02 0.02 0.03 0.04 0.02 0.08 0.14 0.21 0.14 0.04 0.00
0.00 0.00 0.00 0.00 0.00 0.00 0.00 0.00 0.00 0.00 0.00 0.00 0.01 0.04 0.03 0.05 0.06 0.05 0.03 0.04 0.02 0.03 0.03 0.01 0.01 0.01 0.01 0.10 0.13 0.10 0.08 0.05
0.00 0.00 0.00 0.00 0.00 0.00 0.00 0.00 0.00 0.00 0.01 0.09 0.09 0.11 0.07 0.08 0.12 0.07 0.10 0.14 0.14 0.06 0.01 0.01 0.01 0.01 0.01 0.07 0.16 0.12 0.13 0.11
0.00 0.00 0.00 0.00 0.00 0.00 0.00 0.01 0.02 0.02 0.03 0.10 0.15 0.19 0.21 0.23 0.19 0.30 0.20 0.16 0.13 0.15 0.08 0.02 0.01 0.02 0.06 0.09 0.07 0.05 0.06 0.03
0.00 0.00 0.00 0.00 0.00 0.00 0.00 0.00 0.00 0.03 0.05 0.10 0.07 0.07 0.08 0.12 0.21 0.35 0.50 0.43 0.19 0.25 0.38 0.25 0.12 0.11 0.16 0.13 0.09 0.13 0.11 0.03
0.00 0.00 0.00 0.00 0.00 0.00 0.00 0.00 0.00 0.02 0.03 0.11 0.19 0.18 0.17 0.14 0.11 0.27 0.43 0.59 0.50 0.47 0.44 0.41 0.33 0.24 0.24 0.30 0.22 0.12 0.10 0.05
0.00 0.00 0.00 0.00 0.00 0.00 0.00 0.00 0.00 0.01 0.04 0.11 0.11 0.17 0.26 0.44 0.45 0.45 0.29 0.29 0.44 0.67 0.65 0.54 0.48 0.38 0.31 0.28 0.27 0.20 0.14 0.09
0.01 0.00 0.00 0.00 0.00 0.00 0.00 0.00 0.01 0.03 0.04 0.07 0.10 0.16 0.20 0.33 0.36 0.37 0.38 0.24 0.14 0.30 0.68 0.69 0.50 0.50 0.40 0.29 0.28 0.27 0.20 0.14
0.07 0.02 0.01 0.00 0.00 0.00 0.00 0.00 0.00 0.00 0.03 0.05 0.05 0.07 0.12 0.22 0.23 0.21 0.19 0.15 0.16 0.16 0.23 0.62 1.14 0.89 0.59 0.62 0.49 0.30 0.24 0.24
0.38 0.24 0.13 0.07 0.03 0.01 0.01 0.01 0.01 0.00 0.00 0.01 0.01 0.01 0.05 0.07 0.09 0.11 0.08 0.06 0.09 0.14 0.21 0.23 0.39 0.83 1.40 1.36 0.86 0.72 0.57 0.29
0.80 0.48 0.30 0.23 0.20 0.09 0.03 0.01 0.00 0.00 0.00 0.00 0.00 0.00 0.01 0.02 0.03 0.04 0.05 0.03 0.02 0.03 0.09 0.17 0.21 0.26 0.40 0.80 1.13 1.16 1.08 1.02
0.38 0.47 0.29 0.21 0.15 0.11 0.07 0.04 0.03 0.01 0.00 0.00 0.00 0.00 0.00 0.00 0.01 0.01 0.01 0.01 0.01 0.00 0.00 0.01 0.02 0.09 0.14 0.21 0.30 0.38 0.44 0.45
0.01 0.05 0.12 0.11 0.14 0.15 0.12 0.06 0.03 0.03 0.03 0.02 0.01 0.00 0.00 0.00 0.00 0.00 0.00 0.00 0.01 0.00 0.00 0.00 0.00 0.00 0.01 0.03 0.07 0.18 0.34 0.34
0.00 0.00 0.01 0.02 0.04 0.06 0.09 0.09 0.05 0.02 0.02 0.02 0.02 0.01 0.00 0.00 0.00 0.00 0.00 0.00 0.00 0.00 0.00 0.00 0.00 0.00 0.00 0.00 0.00 0.01 0.05 0.17
0.00 0.00 0.00 0.00 0.00 0.00 0.00 0.01 0.04 0.05 0.04 0.01 0.01 0.01 0.00 0.00 0.00 0.00 0.00 0.00 0.00 0.00 0.00 0.00 0.00 0.00 0.00 0.01 0.01 0.00 0.00 0.00

GFSFLT1_prec_precacc6_237.txt.gz
Total_Precipitation_Accumulation
0.00 0.00 0.00 0.00 0.00 0.00 0.00 0.00 0.00 0.00 0.01 0.07 0.09 0.04 0.02 0.01 0.00 0.00 0.00 0.01 0.00 0.14 0.22 0.25 0.27 0.16 0.07 0.06 0.00 0.00 0.00 0.00
0.00 0.00 0.00 0.00 0.00 0.00 0.00 0.00 0.00 0.00 0.01 0.03 0.03 0.02 0.05 0.03 0.01 0.01 0.03 0.08 0.07 0.09 0.22 0.19 0.34 0.19 0.10 0.07 0.07 0.00 0.00 0.00
0.00 0.00 0.00 0.00 0.00 0.00 0.00 0.00 0.00 0.00 0.00 0.00 0.00 0.03 0.02 0.03 0.07 0.04 0.03 0.06 0.09 0.09 0.20 0.19 0.26 0.28 0.13 0.04 0.05 0.02 0.00 0.00
0.00 0.00 0.00 0.00 0.00 0.00 0.00 0.00 0.00 0.00 0.00 0.00 0.00 0.01 0.01 0.02 0.03 0.03 0.01 0.01 0.02 0.10 0.08 0.13 0.16 0.30 0.20 0.16 0.10 0.05 0.02 0.00
0.00 0.00 0.00 0.00 0.00 0.00 0.00 0.00 0.00 0.00 0.00 0.00 0.00 0.00 0.01 0.01 0.01 0.03 0.02 0.02 0.01 0.07 0.09 0.09 0.13 0.16 0.18 0.16 0.16 0.11 0.04 0.00
0.00 0.00 0.00 0.00 0.00 0.00 0.00 0.00 0.00 0.00 0.00 0.00 0.00 0.00 0.01 0.01 0.02 0.03 0.04 0.04 0.05 0.10 0.08 0.04 0.09 0.10 0.11 0.19 0.08 0.07 0.05 0.03
0.00 0.00 0.00 0.00 0.00 0.00 0.00 0.00 0.00 0.00 0.00 0.00 0.00 0.00 0.01 0.01 0.02 0.02 0.06 0.08 0.10 0.06 0.03 0.03 0.06 0.09 0.06 0.12 0.29 0.15 0.12 0.11
0.00 0.00 0.00 0.00 0.00 0.00 0.00 0.00 0.00 0.00 0.00 0.00 0.00 0.01 0.01 0.03 0.02 0.03 0.08 0.08 0.08 0.04 0.03 0.02 0.02 0.04 0.05 0.08 0.11 0.13 0.12 0.05
0.00 0.00 0.00 0.00 0.00 0.00 0.00 0.00 0.00 0.00 0.01 0.02 0.04 0.07 0.05 0.05 0.07 0.12 0.20 0.17 0.09 0.14 0.22 0.13 0.11 0.11 0.16 0.14 0.08 0.20 0.23 0.11
0.00 0.00 0.00 0.00 0.00 0.00 0.00 0.00 0.00 0.01 0.02 0.06 0.10 0.12 0.13 0.06 0.03 0.13 0.21 0.35 0.29 0.25 0.28 0.24 0.21 0.21 0.23 0.27 0.22 0.16 0.18 0.18
0.02 0.01 0.00 0.00 0.00 0.01 0.01 0.02 0.02 0.03 0.05 0.10 0.08 0.09 0.17 0.25 0.21 0.33 0.32 0.28 0.36 0.45 0.49 0.42 0.31 0.25 0.18 0.19 0.27 0.25 0.18 0.14
0.06 0.03 0.02 0.01 0.01 0.01 0.00 0.02 0.04 0.07 0.10 0.15 0.17 0.24 0.24 0.30 0.35 0.42 0.48 0.42 0.33 0.28 0.27 0.34 0.37 0.36 0.30 0.17 0.16 0.20 0.21 0.18
0.31 0.20 0.10 0.05 0.02 0.01 0.00 0.01 0.01 0.03 0.08 0.13 0.16 0.23 0.28 0.38 0.43 0.39 0.42 0.44 0.41 0.35 0.28 0.29 0.31 0.30 0.34 0.51 0.43 0.23 0.17 0.21
0.63 0.62 0.46 0.23 0.10 0.04 0.02 0.01 0.01 0.01 0.01 0.03 0.05 0.08 0.16 0.19 0.25 0.26 0.23 0.30 0.42 0.68 0.64 0.59 0.47 0.50 0.39 0.60 0.63 0.73 0.69 0.42
0.61 0.57 0.56 0.46 0.34 0.19 0.09 0.04 0.02 0.01 0.01 0.02 0.02 0.03 0.04 0.05 0.08 0.11 0.14 0.18 0.24 0.40 0.84 0.85 0.65 0.52 0.57 0.65 0.63 0.54 0.68 0.92
0.27 0.39 0.36 0.31 0.26 0.20 0.14 0.09 0.07 0.04 0.02 0.02 0.02 0.02 0.02 0.02 0.02 0.02 0.03 0.09 0.15 0.21 0.16 0.18 0.34 0.61 0.62 0.46 0.42 0.47 0.39 0.21
0.01 0.06 0.14 0.19 0.24 0.25 0.20 0.12 0.07 0.07 0.06 0.04 0.04 0.04 0.02 0.01 0.01 0.02 0.03 0.01 0.05 0.11 0.17 0.08 0.04 0.06 0.08 0.12 0.11 0.15 0.12 0.13
0.00 0.00 0.01 0.03 0.09 0.13 0.17 0.17 0.11 0.07 0.07 0.06 0.04 0.04 0.03 0.01 0.02 0.01 0.02 0.07 0.04 0.01 0.02 0.02 0.01 0.00 0.01 0.00 0.00 0.01 0.07 0.11
0.00 0.00 0.00 0.00 0.00 0.02 0.04 0.07 0.10 0.10 0.07 0.05 0.04 0.03 0.02 0.02 0.01 0.00 0.00 0.00 0.03 0.05 0.02 0.00 0.00 0.00 0.00 0.00 0.00 0.00 0.00 0.00

GFSFLT1_prec_precacc6_243.txt.gz
Total_Precipitation_Accumulation
0.00 0.00 0.00 0.00 0.00 0.00 0.00 0.00 0.00 0.00 0.00 0.01 0.03 0.04 0.02 0.00 0.00 0.00 0.00 0.00 0.00 0.00 0.00 0.01 0.01 0.02 0.01 0.00 0.00 0.00 0.00 0.00
0.00 0.00 0.00 0.00 0.00 0.00 0.00 0.00 0.00 0.08 0.02 0.01 0.01 0.01 0.01 0.00 0.00 0.00 0.00 0.00 0.00 0.00 0.01 0.06 0.03 0.02 0.04 0.02 0.01 0.00 0.00 0.00
0.00 0.00 0.00 0.00 0.00 0.00 0.00 0.00 0.00 0.08 0.14 0.03 0.01 0.01 0.00 0.00 0.00 0.00 0.00 0.01 0.01 0.01 0.05 0.12 0.06 0.05 0.05 0.02 0.01 0.00 0.00 0.00
0.00 0.00 0.00 0.00 0.00 0.00 0.00 0.00 0.00 0.01 0.05 0.12 0.12 0.06 0.01 0.01 0.01 0.01 0.00 0.01 0.01 0.01 0.06 0.15 0.08 0.08 0.10 0.06 0.02 0.00 0.01 0.00
0.00 0.00 0.00 0.00 0.00 0.00 0.00 0.00 0.00 0.00 0.09 0.11 0.05 0.04 0.02 0.01 0.00 0.00 0.00 0.01 0.01 0.03 0.05 0.13 0.12 0.10 0.13 0.11 0.05 0.02 0.01 0.01
0.00 0.00 0.01 0.00 0.00 0.00 0.00 0.00 0.00 0.00 0.03 0.06 0.09 0.03 0.02 0.01 0.00 0.00 0.01 0.01 0.03 0.05 0.06 0.06 0.11 0.11 0.17 0.16 0.09 0.04 0.02 0.02
0.01 0.02 0.02 0.02 0.01 0.00 0.00 0.00 0.00 0.00 0.02 0.17 0.20 0.14 0.10 0.07 0.02 0.01 0.02 0.01 0.03 0.06 0.06 0.04 0.05 0.10 0.13 0.18 0.14 0.08 0.06 0.02
0.00 0.02 0.02 0.01 0.02 0.01 0.01 0.03 0.00 0.00 0.00 0.13 0.14 0.14 0.22 0.14 0.09 0.02 0.01 0.02 0.04 0.03 0.03 0.02 0.02 0.05 0.08 0.17 0.15 0.05 0.04 0.03
0.08 0.10 0.08 0.04 0.01 0.01 0.02 0.04 0.04 0.02 0.01 0.00 0.05 0.15 0.17 0.20 0.17 0.15 0.10 0.03 0.01 0.02 0.03 0.08 0.08 0.10 0.12 0.14 0.20 0.20 0.09 0.04
0.17 0.27 0.34 0.20 0.14 0.03 0.01 0.01 0.03 0.03 0.01 0.02 0.03 0.09 0.13 0.15 0.14 0.17 0.15 0.13 0.04 0.03 0.03 0.07 0.16 0.16 0.15 0.11 0.11 0.17 0.12 0.06
0.35 0.41 0.31 0.26 0.26 0.11 0.04 0.01 0.01 0.02 0.02 0.04 0.09 0.20 0.26 0.25 0.22 0.19 0.16 0.15 0.12 0.08 0.05 0.05 0.07 0.14 0.16 0.14 0.07 0.11 0.19 0.07
0.49 0.54 0.44 0.38 0.33 0.19 0.12 0.08 0.04 0.03 0.07 0.09 0.13 0.13 0.13 0.20 0.30 0.28 0.31 0.30 0.21 0.18 0.12 0.10 0.08 0.08 0.11 0.13 0.11 0.12 0.13 0.16
0.51 0.51 0.49 0.43 0.39 0.33 0.25 0.19 0.12 0.09 0.12 0.12 0.19 0.25 0.24 0.35 0.40 0.26 0.18 0.32 0.44 0.40 0.22 0.23 0.17 0.12 0.10 0.09 0.13 0.10 0.07 0.12
0.35 0.44 0.47 0.42 0.36 0.38 0.29 0.25 0.18 0.14 0.15 0.14 0.15 0.18 0.27 0.36 0.38 0.39 0.40 0.43 0.48 0.52 0.59 0.50 0.37 0.29 0.21 0.14 0.09 0.08 0.09 0.09
0.16 0.29 0.41 0.35 0.22 0.29 0.24 0.23 0.20 0.13 0.12 0.15 0.16 0.18 0.18 0.25 0.29 0.30 0.33 0.38 0.39 0.49 0.60 0.78 1.06 0.95 0.71 0.43 0.25 0.19 0.10 0.09
0.03 0.09 0.23 0.33 0.29 0.25 0.28 0.13 0.21 0.16 0.11 0.11 0.13 0.16 0.21 0.20 0.26 0.27 0.25 0.28 0.32 0.32 0.47 0.55 0.81 1.15 1.36 1.22 0.95 0.60 0.52 0.36
0.00 0.01 0.07 0.22 0.29 0.26 0.30 0.25 0.17 0.21 0.17 0.13 0.12 0.10 0.15 0.21 0.17 0.24 0.25 0.28 0.30 0.26 0.22 0.32 0.41 0.58 0.88 1.09 1.32 1.36 1.17 0.98
0.00 0.00 0.01 0.06 0.18 0.20 0.20 0.27 0.20 0.16 0.18 0.20 0.14 0.15 0.17 0.20 0.27 0.18 0.21 0.30 0.24 0.30 0.27 0.18 0.27 0.29 0.46 0.56 0.58 0.69 0.93 0.85
0.00 0.00 0.00 0.00 0.03 0.11 0.14 0.13 0.17 0.14 0.12 0.14 0.16 0.15 0.16 0.18 0.21 0.27 0.25 0.20 0.26 0.20 0.14 0.17 0.12 0.15 0.20 0.23 0.31 0.38 0.38 0.34